Location: Unspecified
(37.7609°N, 0.0000°E)
Time: 05:56:39
(UTC+00:00)

UWE-3 - Visible Passes

Search period start: 05 April 2026 00:00
Search period end: 15 April 2026 00:00
Orbit: 544 x 612 km, 97.9° (Epoch: 28 March)

Date Brightness Start Highest point End Pass type
(mag) Time Alt. Az. Time Alt. Az. Time Alt. Az.
5 Apr ? 02:25:55 10° NNE 02:26:52 16° NNE 02:26:52 16° NNE visible
5 Apr ? 04:02:43 10° NW 04:03:09 11° NW 04:03:09 11° NW visible
6 Apr ? 02:30:08 10° NNE 02:31:17 18° NNE 02:31:17 18° NNE visible
6 Apr ? 04:07:24 10° NW 04:07:35 10° NW 04:07:35 10° NW visible
7 Apr ? 02:34:22 10° NNE 02:35:43 20° NNE 02:35:43 20° NNE visible
8 Apr ? 02:38:36 10° NNE 02:40:08 22° NNE 02:40:08 22° NNE visible
9 Apr ? 02:42:50 10° NNE 02:44:32 24° NNE 02:44:32 24° NNE visible
10 Apr ? 02:47:04 10° NNE 02:48:55 26° NNE 02:48:55 26° NNE visible
11 Apr ? 02:51:18 10° NNE 02:53:18 28° N 02:53:18 28° N visible
12 Apr ? 02:55:32 10° N 02:57:41 31° N 02:57:41 31° N visible
13 Apr ? 02:59:45 10° N 03:02:02 32° N 03:02:02 32° N visible
14 Apr ? 03:04:00 10° N 03:06:23 34° N 03:06:23 34° N visible
